Change the Weather History Date:

Tuesday, November 12, 2013

  Actual Average Record
Temperature  
Mean Temperature 35 °F 42 °F  
Max Temperature 46 °F 49 °F 73 °F (1909)
Min Temperature 23 °F 34 °F 17 °F (1926)
Degree Days  
Heating Degree Days 30 23  
Month to date heating degree days 272 260  
Since 1 July heating degree days 870 921  
Cooling Degree Days 0 0  
Month to date cooling degree days 0 0  
Year to date cooling degree days 572 471  
Moisture  
Dew Point 24 °F    
Average Humidity 67    
Maximum Humidity 89    
Minimum Humidity 45    
Precipitation  
Precipitation 0.07 in 0.14 in 2.93 in (1947)
Month to date precipitation 0.37 1.68  
Year to date precipitation 38.05 41.65  
Sea Level Pressure  
Sea Level Pressure 30.02 in    
Wind  
Wind Speed 15 mph (WNW)    
Max Wind Speed 28 mph    
Max Gust Speed 36 mph    
Visibility 8 miles    
Events Rain , Snow    
T = Trace of Precipitation, MM = Missing Value Source: NWS Daily Summary

Daily Weather History Graph

Daily Weather History Graph

Search for Another Location

Airport or City:

Trip Planner

Search our weather history database for the weather conditions in past years. The results will help you decide how hot, cold, wet, or windy it might be!

Date:

Astronomy

Nov. 12, 2013 Rise Set
Actual Time 6:34 AM EST 4:28 PM EST
Civil Twilight 6:04 AM EST 4:58 PM EST
Nautical Twilight 5:30 AM EST 5:31 PM EST
Astronomical Twilight 4:57 AM EST 6:04 PM EST
Moon 1:46 PM EST (11/12) 1:15 AM EST (11/12)
Length of Visible Light 10h 53m
Length of Day
9h 53m
Waxing Gibbous, 76% of the Moon is Illuminated
Nov 12
Waxing Gibbous
Nov 17
Full
Nov 25
Last Quarter
Dec 2
New
Dec 9
First Quarter

Hourly Weather History & Observations

Time (EST) Temp. Windchill Dew Point Humidity Pressure Visibility Wind Dir Wind Speed Gust Speed Precip Events Conditions
12:54 AM 46.0 °F 38.0 °F 27.0 °F 47% 29.89 in 10.0 mi WSW 21.9 mph 27.6 mph N/A   Overcast
1:54 AM 42.1 °F 33.1 °F 33.1 °F 70% 29.91 in 10.0 mi West 20.7 mph 31.1 mph 0.00 in Rain Light Rain
2:15 AM 41.0 °F 31.6 °F 34.0 °F 76% 29.88 in 10.0 mi WSW 20.7 mph 33.4 mph 0.00 in Rain Light Rain
2:25 AM 41.0 °F 33.1 °F 34.0 °F 76% 29.88 in 10.0 mi West 15.0 mph 25.3 mph 0.00 in Rain Light Rain
2:54 AM 39.9 °F 32.5 °F 35.1 °F 83% 29.90 in 10.0 mi WSW 12.7 mph - 0.00 in Rain Light Rain
3:54 AM 39.0 °F 31.8 °F 35.1 °F 86% 29.91 in 10.0 mi West 11.5 mph - 0.01 in Rain Light Rain
4:16 AM 39.0 °F 31.8 °F 35.1 °F 86% 29.89 in 9.0 mi West 11.5 mph - 0.01 in Rain Light Rain
4:54 AM 36.0 °F 26.7 °F 32.0 °F 86% 29.94 in 10.0 mi WNW 15.0 mph 23.0 mph 0.03 in Rain Light Rain
5:22 AM 34.0 °F 25.0 °F 32.0 °F 92% 29.92 in 9.0 mi West 12.7 mph - 0.00 in Snow Light Snow
5:42 AM 34.0 °F 26.0 °F 32.0 °F 92% 29.92 in 9.0 mi West 10.4 mph - 0.01 in   Overcast
5:54 AM 34.0 °F 26.6 °F 32.0 °F 92% 29.95 in 10.0 mi West 9.2 mph - 0.01 in   Overcast
6:37 AM 33.1 °F 23.0 °F 30.9 °F 92% 29.94 in 2.5 mi WNW 15.0 mph - 0.00 in Snow Light Snow
6:48 AM 33.8 °F 24.3 °F 30.2 °F 87% 29.95 in 2.0 mi WNW 13.8 mph - 0.00 in Snow Light Snow
6:54 AM 33.1 °F 24.9 °F 30.9 °F 92% 29.99 in 1.5 mi North 10.4 mph 20.7 mph 0.00 in Snow Light Snow
7:08 AM 32.0 °F 21.6 °F 30.0 °F 92% 29.97 in 0.8 mi NW 15.0 mph 23.0 mph 0.01 in Snow Light Snow
7:33 AM 30.9 °F 21.2 °F 28.9 °F 92% 29.99 in 1.2 mi NW 12.7 mph 24.2 mph 0.02 in Snow Light Snow
7:51 AM 30.2 °F 19.8 °F 24.8 °F 80% 29.99 in 6.0 mi NW 13.8 mph 31.1 mph 0.02 in Snow Light Snow
7:54 AM 30.9 °F 21.7 °F 25.0 °F 79% 30.02 in 9.0 mi NW 11.5 mph - 0.02 in   Overcast
8:01 AM 30.9 °F 21.7 °F 27.0 °F 85% 30.00 in 9.0 mi WNW 11.5 mph - N/A   Overcast
8:54 AM 30.9 °F 22.2 °F 26.1 °F 82% 30.04 in 10.0 mi WNW 10.4 mph - 0.00 in   Overcast
9:54 AM 30.0 °F 22.4 °F 25.0 °F 82% 30.05 in 10.0 mi NW 8.1 mph - N/A   Overcast
10:54 AM 30.0 °F 19.1 °F 21.0 °F 69% 30.05 in 10.0 mi WNW 15.0 mph - N/A   Overcast
11:54 AM 30.0 °F 19.1 °F 19.9 °F 66% 30.05 in 10.0 mi NW 15.0 mph - N/A   Clear
12:54 PM 28.9 °F 17.3 °F 18.0 °F 64% 30.05 in 10.0 mi NW 16.1 mph 23.0 mph N/A   Clear
1:54 PM 28.9 °F 17.3 °F 17.1 °F 61% 30.06 in 10.0 mi NW 16.1 mph 25.3 mph N/A   Clear
2:54 PM 28.0 °F 17.0 °F 15.1 °F 58% 30.09 in 10.0 mi NW 13.8 mph - N/A   Clear
3:54 PM 28.0 °F 18.6 °F 15.1 °F 58% 30.11 in 10.0 mi NW 10.4 mph - N/A   Clear
4:54 PM 28.0 °F 18.6 °F 15.1 °F 58% 30.14 in 10.0 mi WNW 10.4 mph - N/A   Clear
5:54 PM 28.0 °F 18.1 °F 15.1 °F 58% 30.15 in 10.0 mi NW 11.5 mph 21.9 mph N/A   Clear
6:54 PM 27.0 °F 13.9 °F 14.0 °F 58% 30.16 in 10.0 mi NW 18.4 mph 28.8 mph N/A   Clear
7:54 PM 26.1 °F 13.6 °F 12.9 °F 58% 30.17 in 10.0 mi WNW 16.1 mph 26.5 mph N/A   Clear
8:54 PM 25.0 °F 10.9 °F 12.9 °F 60% 30.18 in 10.0 mi WNW 19.6 mph 27.6 mph N/A   Clear
9:54 PM 24.1 °F 9.0 °F 12.9 °F 62% 30.17 in 10.0 mi WNW 21.9 mph 34.5 mph N/A   Clear
10:54 PM 24.1 °F 9.4 °F 12.9 °F 62% 30.17 in 10.0 mi WNW 20.7 mph - N/A   Clear
11:54 PM 23.0 °F 9.2 °F 12.9 °F 65% 30.18 in 10.0 mi WNW 17.3 mph - N/A   Clear